• MPC Preparation (Info)

  • MPEC 1995-G13 : 1995 GA7

    The following Minor Planet Electronic Circular may be linked-to from your own Web pages, but must not otherwise be redistributed electronically.

    A form allowing access to any MPEC is at the bottom of this page.


    Read MPEC 1995-G12 Read MPEC 1995-H01


    M.P.E.C. 1995-G13                                Issued 1995 Apr. 14, 13:59 UT
    
         The Minor Planet Electronic Circulars contain information on unusual
             minor planets and routine data on comets.  They are published
       on behalf of Commission 20 of the International Astronomical Union by the
              Minor Planet Center, Smithsonian Astrophysical Observatory,
                              Cambridge, MA 02138, U.S.A.
    
                 BMARSDEN@CFA.HARVARD.EDU or GWILLIAMS@CFA.HARVARD.EDU
    
                                       1995 GA7
    
    Observations:
         J95G07A* C1995 04 03.38539 13 07 31.41 -06 58 42.0          23   R      568
         J95G07A  C1995 04 03.42066 13 07 31.25 -06 58 40.7                      568
         J95G07A  C1995 04 03.44958 13 07 31.10 -06 58 39.6                      568
         J95G07A  C1995 04 04.51350 13 07 25.78 -06 58 08.3                      568
         J95G07A  C1995 04 04.52337 13 07 25.74 -06 58 07.9                      568
         J95G07A  C1995 04 05.39637 13 07 21.38 -06 57 42.6                      568
         J95G07A  C1995 04 05.50238 13 07 20.82 -06 57 38.8                      568
    
    Observer details:
    568 Mauna Kea.  Observers J. Chen, D. Jewitt.  2.2-m University of Hawaii
        telescope.
    
    Orbital elements:
    1995 GA7
    The following assumed 2:3 Neptune-resonance orbital elements keep the
    object more than 13 AU from Neptune over a 14 000-year period.
    Epoch 1995 Mar. 24.0 TT = JDT 2449800.5                 Marsden
    M  63.86094              (2000.0)            P               Q
    n   0.00397695     Peri.  100.20438     -0.51694826     -0.85573140
    a  39.4551243      Node    20.96838     +0.75922495     -0.47026636
    e   0.1192392      Incl.    3.54014     +0.39540103     -0.21580851
    P 247.83           H     7.5          G   0.15
    From 7 observations 1995 Apr. 3-5.
    
    Ephemeris:
    1995 GA7                 a,e,i = 39.46, 0.12, 4                  q = 34.751
    Date    TT    R. A. (2000) Decl.     Delta      r     Elong.  Phase     V
    1995 04 13    13 06.72   -06 53.9   36.876   37.875   175.3     0.1    23.3
    1995 04 23    13 05.90   -06 49.1   36.905   37.878   165.3     0.4    23.3
    1995 05 03    13 05.13   -06 44.5   36.963   37.881   155.4     0.6    23.3
    1995 05 13    13 04.43   -06 40.4   37.047   37.885   145.5     0.9    23.4
    1995 05 23    13 03.82   -06 36.9   37.156   37.888   135.8     1.1    23.4
    1995 06 02    13 03.34   -06 34.1   37.286   37.891   126.0     1.2    23.4
    1995 06 12    13 02.99   -06 32.2   37.432   37.894   116.4     1.4    23.4
    1995 06 22    13 02.78   -06 31.1   37.592   37.897   106.8     1.5    23.5
    1995 07 02    13 02.74   -06 31.1   37.760   37.901    97.2     1.5    23.5
    1995 07 12    13 02.85   -06 32.0   37.931   37.904    87.7     1.5    23.5
    1995 07 22    13 03.12   -06 33.9   38.101   37.907    78.2     1.5    23.5
    1995 08 01    13 03.55   -06 36.7   38.265   37.910    68.8     1.4    23.5
    
    Brian G. Marsden                                              M.P.E.C. 1995-G13
    

    Read MPEC 1995-G12 Read MPEC 1995-H01


    MPEC number:

    Enter an MPEC number in one of the following forms:

    • 1997-B01 (the full form)
    • J97B01 (the packed version of the full form)
    • B01 (the abbreviated form)